Year,Month,Day,Hour,Minute,Value (Times are PST for temperature in C)
2015,06,01,06,53,17.30
2015,06,01,06,54,17.30
2015,06,01,06,55,17.40
2015,06,01,06,56,17.40
2015,06,01,06,57,17.40
2015,06,01,06,58,17.50
2015,06,01,06,59,17.50
2015,06,01,07,00,17.60
2015,06,01,07,01,17.60
2015,06,01,07,02,17.60
2015,06,01,07,03,17.70
2015,06,01,07,04,17.70
2015,06,01,07,05,17.80
2015,06,01,07,06,17.80
2015,06,01,07,07,17.90
2015,06,01,07,08,17.90
2015,06,01,07,09,18.00
2015,06,01,07,10,18.00
2015,06,01,07,11,18.10
2015,06,01,07,12,18.10
2015,06,01,07,13,18.10
2015,06,01,07,14,18.10
2015,06,01,07,15,18.10
2015,06,01,07,16,18.10
2015,06,01,07,17,18.10
2015,06,01,07,18,18.10
2015,06,01,07,19,18.10
2015,06,01,07,20,18.20
2015,06,01,07,21,18.20
2015,06,01,07,22,18.20
2015,06,01,07,23,18.20
2015,06,01,07,24,18.20
2015,06,01,07,25,18.20
2015,06,01,07,26,18.30
2015,06,01,07,27,18.30
2015,06,01,07,28,18.30
2015,06,01,07,29,18.20
2015,06,01,07,30,17.90
2015,06,01,07,31,17.80
2015,06,01,07,32,17.60
2015,06,01,07,33,17.50
2015,06,01,07,34,17.50
2015,06,01,07,35,17.30
2015,06,01,07,36,17.10
2015,06,01,07,37,17.00
2015,06,01,07,38,16.80
2015,06,01,07,39,16.70
2015,06,01,07,40,16.60
2015,06,01,07,41,16.60
2015,06,01,07,42,16.60
2015,06,01,07,43,16.60
2015,06,01,07,44,16.70
2015,06,01,07,45,16.70
2015,06,01,07,46,16.70
2015,06,01,07,47,16.70
2015,06,01,07,48,16.70
2015,06,01,07,49,16.70
2015,06,01,07,50,16.70
2015,06,01,07,51,16.70
2015,06,01,07,52,16.80
2015,06,01,07,53,16.80
2015,06,01,07,54,16.80
2015,06,01,07,55,16.80
2015,06,01,07,56,16.90
2015,06,01,07,57,16.90
2015,06,01,07,58,16.80
2015,06,01,07,59,16.80
2015,06,01,08,00,16.80
2015,06,01,08,01,16.80
2015,06,01,08,02,16.80
2015,06,01,08,03,16.70
2015,06,01,08,04,16.70
2015,06,01,08,05,16.70
2015,06,01,08,06,16.60
2015,06,01,08,07,16.60
2015,06,01,08,08,16.60
2015,06,01,08,09,16.60
2015,06,01,08,10,16.60
2015,06,01,08,11,16.60
2015,06,01,08,12,16.60
2015,06,01,08,13,16.60
2015,06,01,08,14,16.60
2015,06,01,08,15,16.70
2015,06,01,08,16,16.80
2015,06,01,08,17,16.80
2015,06,01,08,18,16.90
2015,06,01,08,19,17.00
2015,06,01,08,20,17.10
2015,06,01,08,21,17.10
2015,06,01,08,22,17.20
2015,06,01,08,23,17.30
2015,06,01,08,24,17.50
2015,06,01,08,25,17.60
2015,06,01,08,26,17.60
2015,06,01,08,27,17.70
2015,06,01,08,28,17.70
2015,06,01,08,29,17.70
2015,06,01,08,30,17.70
2015,06,01,08,31,17.70
2015,06,01,08,32,17.70
2015,06,01,08,33,17.80
2015,06,01,08,34,17.80
2015,06,01,08,35,17.80
2015,06,01,08,36,17.80
2015,06,01,08,37,17.80
2015,06,01,08,38,17.80
2015,06,01,08,39,17.80
2015,06,01,08,40,17.80
2015,06,01,08,41,17.70
2015,06,01,08,42,17.70
2015,06,01,08,43,17.60
2015,06,01,08,44,17.60
2015,06,01,08,45,17.50
2015,06,01,08,46,17.50
2015,06,01,08,47,17.50
2015,06,01,08,48,17.50
2015,06,01,08,49,17.50
2015,06,01,08,50,17.50
2015,06,01,08,51,17.40
2015,06,01,08,52,17.40
2015,06,01,08,53,17.30
2015,06,01,08,54,17.20
2015,06,01,08,55,17.20
2015,06,01,08,56,17.10
2015,06,01,08,57,17.10
2015,06,01,08,58,17.10
2015,06,01,08,59,17.10
2015,06,01,09,00,17.10
2015,06,01,09,01,17.10
2015,06,01,09,02,17.10
2015,06,01,09,03,17.00
2015,06,01,09,04,17.00
2015,06,01,09,05,17.00
2015,06,01,09,06,17.00
2015,06,01,09,07,17.00
2015,06,01,09,08,17.10
2015,06,01,09,09,17.10
2015,06,01,09,10,17.10
2015,06,01,09,11,17.10
2015,06,01,09,12,17.20
2015,06,01,09,13,17.20
2015,06,01,09,14,17.30
2015,06,01,09,15,17.30
2015,06,01,09,16,17.30
2015,06,01,09,17,17.40
2015,06,01,09,18,17.40
2015,06,01,09,19,17.40
2015,06,01,09,20,17.40
2015,06,01,09,21,17.50
2015,06,01,09,22,17.50
2015,06,01,09,23,17.60
2015,06,01,09,24,17.60
2015,06,01,09,25,17.70
2015,06,01,09,26,17.70
2015,06,01,09,27,17.80
2015,06,01,09,28,17.80
2015,06,01,09,29,17.90
2015,06,01,09,30,18.00
2015,06,01,09,31,18.00
2015,06,01,09,32,18.10
2015,06,01,09,33,18.20
2015,06,01,09,34,18.30
2015,06,01,09,35,18.30
2015,06,01,09,36,18.30
2015,06,01,09,37,18.30
2015,06,01,09,38,18.30
2015,06,01,09,39,18.20
2015,06,01,09,40,18.20
2015,06,01,09,41,18.20
2015,06,01,09,42,18.20
2015,06,01,09,43,18.20
2015,06,01,09,44,18.20
2015,06,01,09,45,18.20
2015,06,01,09,46,18.20
2015,06,01,09,47,18.20
2015,06,01,09,48,18.10
2015,06,01,09,49,18.10
2015,06,01,09,50,18.20
2015,06,01,09,51,18.20
2015,06,01,09,52,18.20
2015,06,01,09,53,18.30
2015,06,01,09,54,18.30
2015,06,01,09,55,18.40
2015,06,01,09,56,18.40
2015,06,01,09,57,18.50
2015,06,01,09,58,18.50
2015,06,01,09,59,18.40
2015,06,01,10,00,18.30
2015,06,01,10,01,18.20
2015,06,01,10,02,18.00
2015,06,01,10,03,17.90
2015,06,01,10,04,17.90
2015,06,01,10,05,17.90
2015,06,01,10,06,17.80
2015,06,01,10,07,17.80
2015,06,01,10,08,17.80
2015,06,01,10,09,17.90
2015,06,01,10,10,17.90
2015,06,01,10,11,17.90
2015,06,01,10,12,17.90
2015,06,01,10,13,17.90
2015,06,01,10,14,17.90
2015,06,01,10,15,17.90
2015,06,01,10,16,17.80
2015,06,01,10,17,17.80
2015,06,01,10,18,17.70
2015,06,01,10,19,17.70
2015,06,01,10,20,17.70
2015,06,01,10,21,17.70
2015,06,01,10,22,17.60
2015,06,01,10,23,17.50
2015,06,01,10,24,17.40
2015,06,01,10,25,17.30
2015,06,01,10,26,17.20
2015,06,01,10,27,17.20
2015,06,01,10,28,17.10
2015,06,01,10,29,17.10
2015,06,01,10,30,17.00
2015,06,01,10,31,16.90
2015,06,01,10,32,16.90
2015,06,01,10,33,16.90
2015,06,01,10,34,16.90
2015,06,01,10,35,16.80
2015,06,01,10,36,16.90
2015,06,01,10,37,16.90
2015,06,01,10,38,17.00
2015,06,01,10,39,17.00
2015,06,01,10,40,17.10
2015,06,01,10,41,17.20
2015,06,01,10,42,17.30
2015,06,01,10,43,17.40
2015,06,01,10,44,17.40
2015,06,01,10,45,17.40
2015,06,01,10,46,17.40
2015,06,01,10,47,17.40
2015,06,01,10,48,17.50
2015,06,01,10,49,17.50
2015,06,01,10,50,17.50
2015,06,01,10,51,17.50
2015,06,01,10,52,17.50
2015,06,01,10,53,17.50
2015,06,01,10,54,17.60
2015,06,01,10,55,17.60
2015,06,01,10,56,17.60
2015,06,01,10,57,17.70
2015,06,01,10,58,17.70
2015,06,01,10,59,17.70
2015,06,01,11,00,17.60
2015,06,01,11,01,17.50
2015,06,01,11,02,17.50
2015,06,01,11,03,17.50
2015,06,01,11,04,17.40
2015,06,01,11,05,17.40
2015,06,01,11,06,17.40
2015,06,01,11,07,17.40
2015,06,01,11,08,17.40
2015,06,01,11,09,17.30
2015,06,01,11,10,17.20
2015,06,01,11,11,17.20
2015,06,01,11,12,17.20
2015,06,01,11,13,17.20
2015,06,01,11,14,17.30
2015,06,01,11,15,17.30
2015,06,01,11,16,17.30
2015,06,01,11,17,17.20
2015,06,01,11,18,17.20
2015,06,01,11,19,17.20
2015,06,01,11,20,17.20
2015,06,01,11,21,17.20
2015,06,01,11,22,17.20
2015,06,01,11,23,17.20
2015,06,01,11,24,17.20
2015,06,01,11,25,17.10
2015,06,01,11,26,17.10
2015,06,01,11,27,17.00
2015,06,01,11,28,17.00
2015,06,01,11,29,17.00
2015,06,01,11,30,17.00
2015,06,01,11,31,16.90
2015,06,01,11,32,17.00
2015,06,01,11,33,17.10
2015,06,01,11,34,17.10
2015,06,01,11,35,17.10
2015,06,01,11,36,17.10
2015,06,01,11,37,17.10
2015,06,01,11,38,17.10
2015,06,01,11,39,17.20
2015,06,01,11,40,17.20
2015,06,01,11,41,17.10
2015,06,01,11,42,17.00
2015,06,01,11,43,17.00
2015,06,01,11,44,16.90
2015,06,01,11,45,16.90
2015,06,01,11,46,16.80
2015,06,01,11,47,16.80
2015,06,01,11,48,16.80
2015,06,01,11,49,16.80
2015,06,01,11,50,16.70
2015,06,01,11,51,16.70
2015,06,01,11,52,16.70
2015,06,01,11,53,16.70
2015,06,01,11,54,16.70
2015,06,01,11,55,16.70
2015,06,01,11,56,16.70
2015,06,01,11,57,16.80
2015,06,01,11,58,16.80
2015,06,01,11,59,16.90
2015,06,01,12,00,16.90
2015,06,01,12,01,16.90
2015,06,01,12,02,16.90
2015,06,01,12,03,17.00
2015,06,01,12,04,17.00
2015,06,01,12,05,16.90
2015,06,01,12,06,16.90
2015,06,01,12,07,16.90
2015,06,01,12,08,16.90
2015,06,01,12,09,16.90
2015,06,01,12,10,17.00
2015,06,01,12,11,17.20
2015,06,01,12,12,17.20
2015,06,01,12,13,17.20
2015,06,01,12,14,17.20
2015,06,01,12,15,17.30
2015,06,01,12,16,17.30
2015,06,01,12,17,17.30
2015,06,01,12,18,17.20
2015,06,01,12,19,17.10
2015,06,01,12,20,17.00
2015,06,01,12,21,16.90
2015,06,01,12,22,16.90
2015,06,01,12,23,16.80
2015,06,01,12,24,16.70
2015,06,01,12,25,16.70
2015,06,01,12,26,16.80
2015,06,01,12,27,16.80
2015,06,01,12,28,16.90
2015,06,01,12,29,16.90
2015,06,01,12,30,16.80
2015,06,01,12,31,16.70
2015,06,01,12,32,16.70
2015,06,01,12,33,16.70
2015,06,01,12,34,16.70
2015,06,01,12,35,16.70
2015,06,01,12,36,16.70
2015,06,01,12,37,16.80
2015,06,01,12,38,16.80
2015,06,01,12,39,17.00
2015,06,01,12,40,17.00
2015,06,01,12,41,17.10
2015,06,01,12,42,17.20
2015,06,01,12,43,17.20
2015,06,01,12,44,17.20
2015,06,01,12,45,17.20
2015,06,01,12,46,17.20
2015,06,01,12,47,17.30
2015,06,01,12,48,17.20
2015,06,01,12,49,17.20
2015,06,01,12,50,17.20
2015,06,01,12,51,17.20
2015,06,01,12,52,17.20
2015,06,01,12,53,17.20
2015,06,01,12,54,17.20
2015,06,01,12,55,17.30
2015,06,01,12,56,17.30
2015,06,01,12,57,17.30
2015,06,01,12,58,17.30
2015,06,01,12,59,17.30
2015,06,01,13,00,17.20
2015,06,01,13,01,17.10
2015,06,01,13,02,17.00
2015,06,01,13,03,16.90
2015,06,01,13,04,16.90
2015,06,01,13,05,16.90
2015,06,01,13,06,16.90
2015,06,01,13,07,16.80
2015,06,01,13,08,16.70
2015,06,01,13,09,16.60
2015,06,01,13,10,16.50
2015,06,01,13,11,16.40
2015,06,01,13,12,16.30
2015,06,01,13,13,16.20
2015,06,01,13,14,16.20
2015,06,01,13,15,16.20
2015,06,01,13,16,16.20
2015,06,01,13,17,16.10
2015,06,01,13,18,16.10
2015,06,01,13,19,16.00
2015,06,01,13,20,16.00
2015,06,01,13,21,16.00
2015,06,01,13,22,15.90
2015,06,01,13,23,15.90
2015,06,01,13,24,15.90
2015,06,01,13,25,15.90
2015,06,01,13,26,15.90
2015,06,01,13,27,15.90
2015,06,01,13,28,15.80
2015,06,01,13,29,15.80
2015,06,01,13,30,15.90
2015,06,01,13,31,15.90
2015,06,01,13,32,15.90
2015,06,01,13,33,15.80
2015,06,01,13,34,15.80
2015,06,01,13,35,15.70
2015,06,01,13,36,15.70
2015,06,01,13,37,15.70
2015,06,01,13,38,15.70
2015,06,01,13,39,15.70
2015,06,01,13,40,15.70
2015,06,01,13,41,15.70
2015,06,01,13,42,15.70
2015,06,01,13,43,15.70
2015,06,01,13,44,15.80
2015,06,01,13,45,15.80
2015,06,01,13,46,15.80
2015,06,01,13,47,15.80
2015,06,01,13,48,15.80
2015,06,01,13,49,15.80
2015,06,01,13,50,15.70
2015,06,01,13,51,15.70
2015,06,01,13,52,15.70
2015,06,01,13,53,15.60
2015,06,01,13,54,15.60
2015,06,01,13,55,15.70
2015,06,01,13,56,15.60
2015,06,01,13,57,15.60
2015,06,01,13,58,15.60
2015,06,01,13,59,15.70
2015,06,01,14,00,15.70
2015,06,01,14,01,15.70
2015,06,01,14,02,15.80
2015,06,01,14,03,15.80
2015,06,01,14,04,15.80
2015,06,01,14,05,15.80
2015,06,01,14,06,15.80
2015,06,01,14,07,15.90
2015,06,01,14,08,15.90
2015,06,01,14,09,15.90
2015,06,01,14,10,15.90
2015,06,01,14,11,15.90
2015,06,01,14,12,15.90
2015,06,01,14,13,15.90
2015,06,01,14,14,15.90
2015,06,01,14,15,15.90
2015,06,01,14,16,15.80
2015,06,01,14,17,15.80
2015,06,01,14,18,15.80
2015,06,01,14,19,15.80
2015,06,01,14,20,15.80
2015,06,01,14,21,15.90
2015,06,01,14,22,15.90
2015,06,01,14,23,15.90
2015,06,01,14,24,15.90
2015,06,01,14,25,15.90
2015,06,01,14,26,15.90
2015,06,01,14,27,15.90
2015,06,01,14,28,15.90
2015,06,01,14,29,15.90
2015,06,01,14,30,15.90
2015,06,01,14,31,15.90
2015,06,01,14,32,15.90
2015,06,01,14,33,15.80
2015,06,01,14,34,15.80
2015,06,01,14,35,15.80
2015,06,01,14,36,15.80
2015,06,01,14,37,15.80
2015,06,01,14,38,15.80
2015,06,01,14,39,15.80
2015,06,01,14,40,15.90
2015,06,01,14,41,15.90
2015,06,01,14,42,15.80
2015,06,01,14,43,15.90
2015,06,01,14,44,15.80
2015,06,01,14,45,15.80
2015,06,01,14,46,15.90
2015,06,01,14,47,15.80
2015,06,01,14,48,15.90
2015,06,01,14,49,15.90
2015,06,01,14,50,15.90
2015,06,01,14,51,15.90
2015,06,01,14,52,16.00
2015,06,01,14,53,16.00
2015,06,01,14,54,16.10
2015,06,01,14,55,16.10
2015,06,01,14,56,16.10
2015,06,01,14,57,16.10
2015,06,01,14,58,16.10
2015,06,01,14,59,16.20
2015,06,01,15,00,16.20
2015,06,01,15,01,16.20
2015,06,01,15,02,16.20
2015,06,01,15,03,16.20
2015,06,01,15,04,16.10
2015,06,01,15,05,16.10
2015,06,01,15,06,16.10
2015,06,01,15,07,16.10
2015,06,01,15,08,16.10
2015,06,01,15,09,16.20
2015,06,01,15,10,16.20
2015,06,01,15,11,16.20
2015,06,01,15,12,16.30
2015,06,01,15,13,16.30
2015,06,01,15,14,16.30
2015,06,01,15,15,16.40
2015,06,01,15,16,16.40
2015,06,01,15,17,16.40
2015,06,01,15,18,16.40
2015,06,01,15,19,16.50
2015,06,01,15,20,16.50
2015,06,01,15,21,16.60
2015,06,01,15,22,16.60
2015,06,01,15,23,16.60
2015,06,01,15,24,16.70
2015,06,01,15,25,16.70
2015,06,01,15,26,16.70
2015,06,01,15,27,16.70
2015,06,01,15,28,16.80
2015,06,01,15,29,16.80
2015,06,01,15,30,16.80
2015,06,01,15,31,16.80
2015,06,01,15,32,16.80
2015,06,01,15,33,16.80
2015,06,01,15,34,16.80
2015,06,01,15,35,16.80
2015,06,01,15,36,16.90
2015,06,01,15,37,16.90
2015,06,01,15,38,16.80
2015,06,01,15,39,16.80
2015,06,01,15,40,16.80
2015,06,01,15,41,16.80
2015,06,01,15,42,16.80
2015,06,01,15,43,16.80
2015,06,01,15,44,16.80
2015,06,01,15,45,16.80
2015,06,01,15,46,16.80
2015,06,01,15,47,16.80
2015,06,01,15,48,16.80
2015,06,01,15,49,16.70
2015,06,01,15,50,16.70
2015,06,01,15,51,16.60
2015,06,01,15,52,16.60
2015,06,01,15,53,16.60
2015,06,01,15,54,16.50
2015,06,01,15,55,16.50
2015,06,01,15,56,16.40
2015,06,01,15,57,16.40
2015,06,01,15,58,16.40
2015,06,01,15,59,16.30
2015,06,01,16,00,16.30
2015,06,01,16,01,16.30
2015,06,01,16,02,16.30
2015,06,01,16,03,16.20
2015,06,01,16,04,16.20
2015,06,01,16,05,16.20
2015,06,01,16,06,16.20
2015,06,01,16,07,16.10
2015,06,01,16,08,16.10
2015,06,01,16,09,16.00
2015,06,01,16,10,16.10
2015,06,01,16,11,16.00
2015,06,01,16,12,16.00
2015,06,01,16,13,15.90
2015,06,01,16,14,15.90
2015,06,01,16,15,15.90
2015,06,01,16,16,15.90
2015,06,01,16,17,15.90
2015,06,01,16,18,15.90
2015,06,01,16,19,15.80
2015,06,01,16,20,15.80
2015,06,01,16,21,15.80
2015,06,01,16,22,15.80
2015,06,01,16,23,15.80
2015,06,01,16,24,15.80
2015,06,01,16,25,15.80
2015,06,01,16,26,15.80
2015,06,01,16,27,15.70
2015,06,01,16,28,15.70
2015,06,01,16,29,15.70
2015,06,01,16,30,15.70
2015,06,01,16,31,15.70
2015,06,01,16,32,15.60
2015,06,01,16,33,15.60
2015,06,01,16,34,15.60
2015,06,01,16,35,15.50
2015,06,01,16,36,15.40
2015,06,01,16,37,15.40
2015,06,01,16,38,15.40
2015,06,01,16,39,15.40
2015,06,01,16,40,15.40
2015,06,01,16,41,15.40
2015,06,01,16,42,15.30
2015,06,01,16,43,15.30
2015,06,01,16,44,15.30
2015,06,01,16,45,15.20
2015,06,01,16,46,15.20
2015,06,01,16,47,15.30
2015,06,01,16,48,15.20
2015,06,01,16,49,15.30
2015,06,01,16,50,15.20
2015,06,01,16,51,15.20
2015,06,01,16,52,15.20
2015,06,01,16,53,15.20
2015,06,01,16,54,15.20
2015,06,01,16,55,15.20
2015,06,01,16,56,15.20
2015,06,01,16,57,15.20
2015,06,01,16,58,15.20
2015,06,01,16,59,15.20
2015,06,01,17,00,15.20
2015,06,01,17,01,15.20
2015,06,01,17,02,15.20
2015,06,01,17,03,15.20
2015,06,01,17,04,15.10
2015,06,01,17,05,15.10
2015,06,01,17,06,15.10
2015,06,01,17,07,15.00
2015,06,01,17,08,15.00
2015,06,01,17,09,15.00
2015,06,01,17,10,15.10
2015,06,01,17,11,15.00
2015,06,01,17,12,15.00
2015,06,01,17,13,15.00
2015,06,01,17,14,15.00
2015,06,01,17,15,15.00
2015,06,01,17,16,15.00
2015,06,01,17,17,15.00
2015,06,01,17,18,15.00
2015,06,01,17,19,15.00
2015,06,01,17,20,15.00
2015,06,01,17,21,15.00
2015,06,01,17,22,15.00
2015,06,01,17,23,15.00
2015,06,01,17,24,15.00
2015,06,01,17,25,15.00
2015,06,01,17,26,15.00
2015,06,01,17,27,15.00
2015,06,01,17,28,15.00
2015,06,01,17,29,15.00
2015,06,01,17,30,14.90
2015,06,01,17,31,14.90
2015,06,01,17,32,14.90
2015,06,01,17,33,14.90
2015,06,01,17,34,14.90
2015,06,01,17,35,15.00
2015,06,01,17,36,15.00
2015,06,01,17,37,15.00
2015,06,01,17,38,14.90
2015,06,01,17,39,14.90
2015,06,01,17,40,14.90
2015,06,01,17,41,14.90
2015,06,01,17,42,14.90
2015,06,01,17,43,14.80
2015,06,01,17,44,14.80
2015,06,01,17,45,14.80
2015,06,01,17,46,14.90
2015,06,01,17,47,14.90
2015,06,01,17,48,15.00
2015,06,01,17,49,15.00
2015,06,01,17,50,14.90
2015,06,01,17,51,14.90
2015,06,01,17,52,14.90
2015,06,01,17,53,14.90
2015,06,01,17,54,14.90
2015,06,01,17,55,14.90
2015,06,01,17,56,14.90
2015,06,01,17,57,14.90
2015,06,01,17,58,14.90
2015,06,01,17,59,14.90
2015,06,01,18,00,14.90
2015,06,01,18,01,14.90
2015,06,01,18,02,14.90
2015,06,01,18,03,14.90
2015,06,01,18,04,15.00
2015,06,01,18,05,15.00
2015,06,01,18,06,15.00
2015,06,01,18,07,14.90
2015,06,01,18,08,14.80
2015,06,01,18,09,14.80
2015,06,01,18,10,14.90
2015,06,01,18,11,14.90
2015,06,01,18,12,14.80
2015,06,01,18,13,14.80
2015,06,01,18,14,14.90
2015,06,01,18,15,14.90
2015,06,01,18,16,14.90
2015,06,01,18,17,14.90
2015,06,01,18,18,15.00
2015,06,01,18,19,15.00
2015,06,01,18,20,15.00
2015,06,01,18,21,15.00
2015,06,01,18,22,15.00
2015,06,01,18,23,15.00
2015,06,01,18,24,15.00
2015,06,01,18,25,15.00
2015,06,01,18,26,15.00
2015,06,01,18,27,15.00
2015,06,01,18,28,14.90
2015,06,01,18,29,15.00
2015,06,01,18,30,14.90
2015,06,01,18,31,14.90
2015,06,01,18,32,14.90
2015,06,01,18,33,14.90
2015,06,01,18,34,15.00
2015,06,01,18,35,15.00
2015,06,01,18,36,15.00
2015,06,01,18,37,14.90
2015,06,01,18,38,15.00
2015,06,01,18,39,15.00
2015,06,01,18,40,14.90
2015,06,01,18,41,14.90
2015,06,01,18,42,14.90
2015,06,01,18,43,15.00
2015,06,01,18,44,15.00
2015,06,01,18,45,15.00
2015,06,01,18,46,15.00
2015,06,01,18,47,15.00
2015,06,01,18,48,15.00
2015,06,01,18,49,14.90
2015,06,01,18,50,14.90
2015,06,01,18,51,14.90
2015,06,01,18,52,14.90
2015,06,01,18,53,14.90
2015,06,01,18,54,14.90
2015,06,01,18,55,14.90
2015,06,01,18,56,14.90
2015,06,01,18,57,14.90
2015,06,01,18,58,14.90
2015,06,01,18,59,14.90
